This is the latest recevied weather packets stored in our database for station/object F8KHU-13. If no packets are shown the sender has not sent any weather packets the latest 10 day(s).
| Time | Temp. | Humidity | Pressure | Rain* | Wind** | Luminosity | Snow |
|---|---|---|---|---|---|---|---|
| 1777564537 | 25.56° C | 25% | 1024.4 hPa | 0 mm | - | 0 W/m² | - |
| 1777564517 | 25.56° C | 25% | 1024.4 hPa | 0 mm | - | 0 W/m² | - |
| 1777564497 | 25.56° C | 25% | 1024.4 hPa | 0 mm | - | 0 W/m² | - |
| 1777563637 | 27.78° C | 24% | 1024.3 hPa | 0 mm | - | 0 W/m² | - |
| 1777563617 | 27.78° C | 24% | 1024.4 hPa | 0 mm | - | 0 W/m² | - |
| 1777563597 | 27.78° C | 24% | 1024.5 hPa | 0 mm | - | 0 W/m² | - |
| 1777562737 | 27.78° C | 24% | 1024.5 hPa | 0 mm | - | 0 W/m² | - |
| 1777562717 | 27.78° C | 24% | 1024.5 hPa | 0 mm | - | 0 W/m² | - |
| 1777562697 | 27.78° C | 24% | 1024.4 hPa | 0 mm | - | 0 W/m² | - |
| 1777561838 | 28.89° C | 23% | 1024.5 hPa | 0 mm | - | 0 W/m² | - |
| 1777561818 | 28.89° C | 23% | 1024.5 hPa | 0 mm | - | 0 W/m² | - |
| 1777561798 | 28.89° C | 23% | 1024.5 hPa | 0 mm | - | 0 W/m² | - |
| 1777560918 | 30° C | 23% | 1024.4 hPa | 0 mm | - | 0 W/m² | - |
| 1777560898 | 30° C | 23% | 1024.4 hPa | 0 mm | - | 0 W/m² | - |
| 1777560038 | 30.56° C | 22% | 1024.5 hPa | 0 mm | - | 0 W/m² | - |
| 1777560018 | 30.56° C | 22% | 1024.5 hPa | 0 mm | - | 0 W/m² | - |
| 1777559998 | 30.56° C | 22% | 1024.6 hPa | 0 mm | - | 0 W/m² | - |
| 1777559138 | 32.22° C | 21% | 1024.7 hPa | 0 mm | - | 0 W/m² | - |
| 1777559118 | 32.22° C | 21% | 1024.7 hPa | 0 mm | - | 0 W/m² | - |
| 1777559098 | 32.22° C | 21% | 1024.6 hPa | 0 mm | - | 0 W/m² | - |
| 1777558238 | 31.11° C | 22% | 1024.7 hPa | 0 mm | - | 0 W/m² | - |
| 1777558218 | 31.11° C | 22% | 1024.7 hPa | 0 mm | - | 0 W/m² | - |
| 1777558198 | 31.11° C | 21% | 1024.7 hPa | 0 mm | - | 0 W/m² | - |
| 1777557338 | 30.56° C | 21% | 1024.9 hPa | 0 mm | - | 0 W/m² | - |
| 1777557319 | 30.56° C | 21% | 1024.8 hPa | 0 mm | - | 0 W/m² | - |
* Rain latest hour (hover to see other rain measurements)
** Current wind speed in m/s (hover to see current wind gust speed)